Garden City, KS

1:09 PM CDT on April 25, 2017 (GMT -0500)
Garden City Regional

Weather History for KGCK - October, 2012

Change the Weather History Date:

Saturday, October 6, 2012

  Actual Average Record
Temperature  
Mean Temperature 38 °F 59 °F  
Max Temperature 39 °F 74 °F 93 °F (1975)
Min Temperature 36 °F 45 °F 30 °F (2001)
Degree Days  
Heating Degree Days 27 7  
Month to date heating degree days 76 38  
Since 1 July heating degree days 122 110  
Cooling Degree Days 0 1  
Month to date cooling degree days 1 10  
Year to date cooling degree days 1643 1288  
Moisture  
Dew Point 35 °F    
Average Humidity 93    
Maximum Humidity 100    
Minimum Humidity 85    
Precipitation  
Precipitation 0.06 in 0.05 in 1.52 in (1977)
Month to date precipitation 0.07 0.31  
Year to date precipitation 11.79 17.43  
Sea Level Pressure  
Sea Level Pressure 30.34 in    
Wind  
Wind Speed 8 mph (ENE)    
Max Wind Speed 16 mph    
Max Gust Speed 18 mph    
Visibility 8 miles    
Events Rain    
T = Trace of Precipitation, MM = Missing Value Source: NWS Daily Summary

Daily Weather History Graph

Daily Weather History Graph

Search for Another Location

Airport or City:

Trip Planner

Search our weather history database for the weather conditions in past years. The results will help you decide how hot, cold, wet, or windy it might be!

Date:

Astronomy

Oct. 06, 2012 Rise Set
Actual Time 7:43 AM CDT 7:17 PM CDT
Civil Twilight 7:17 AM CDT 7:43 PM CDT
Nautical Twilight 6:46 AM CDT 8:14 PM CDT
Astronomical Twilight 6:16 AM CDT 8:44 PM CDT
Moon 11:39 PM CDT (10/6) 1:34 PM CDT (10/6)
Length of Visible Light 12h 26m
Length of Day
11h 34m
Waning Gibbous, 65% of the Moon is Illuminated
Oct 6
Waning Gibbous
Oct 8
Last Quarter
Oct 15
New
Oct 21
First Quarter
Oct 29
Full

Hourly Weather History & Observations

Time (CDT) Temp. Windchill Dew Point Humidity Pressure Visibility Wind Dir Wind Speed Gust Speed Precip Events Conditions
12:54 AM 39.0 °F 31.4 °F 33.1 °F 79% 30.34 in 10.0 mi NE 12.7 mph - 0.00 in   Overcast
1:54 AM 37.9 °F 29.2 °F 33.1 °F 83% 30.34 in 10.0 mi NE 15.0 mph - N/A   Overcast
2:03 AM 37.4 °F 28.9 °F 33.8 °F 87% 30.33 in 10.0 mi NE 13.8 mph - N/A   Overcast
2:54 AM 37.0 °F 29.3 °F 33.1 °F 86% 30.34 in 10.0 mi ENE 11.5 mph - N/A   Overcast
3:54 AM 37.0 °F 31.0 °F 33.1 °F 86% 30.32 in 10.0 mi ENE 8.1 mph - N/A   Overcast
4:27 AM 37.4 °F 32.1 °F 33.8 °F 87% 30.29 in 10.0 mi NE 6.9 mph - N/A   Overcast
4:54 AM 37.9 °F 32.7 °F 33.1 °F 83% 30.31 in 10.0 mi ENE 6.9 mph - N/A   Overcast
5:54 AM 37.0 °F 32.4 °F 34.0 °F 89% 30.33 in 8.0 mi NE 5.8 mph - N/A   Overcast
6:54 AM 37.0 °F 33.3 °F 34.0 °F 89% 30.34 in 7.0 mi NNE 4.6 mph - N/A   Overcast
7:07 AM 37.4 °F 33.8 °F 35.6 °F 93% 30.31 in 7.0 mi NNE 4.6 mph - N/A   Overcast
7:54 AM 37.0 °F 33.3 °F 35.1 °F 93% 30.35 in 6.0 mi NNE 4.6 mph - 0.00 in   Overcast
8:27 AM 37.4 °F 32.8 °F 35.6 °F 93% 30.32 in 4.0 mi NNE 5.8 mph - 0.01 in   Overcast
8:39 AM 37.4 °F 32.8 °F 33.8 °F 87% 30.32 in 3.0 mi ENE 5.8 mph - 0.01 in   Overcast
8:54 AM 37.0 °F 31.6 °F 35.1 °F 93% 30.36 in 2.5 mi ENE 6.9 mph - 0.01 in   Overcast
9:00 AM 37.4 °F 32.1 °F 35.6 °F 93% 30.33 in 3.0 mi NE 6.9 mph - 0.00 in Rain Light Rain
9:12 AM 37.4 °F 31.4 °F 33.8 °F 87% 30.33 in 6.0 mi ENE 8.1 mph - 0.00 in Rain Light Rain
9:37 AM 35.6 °F 29.2 °F 33.8 °F 93% 30.34 in 8.0 mi ENE 8.1 mph - 0.01 in Rain Light Rain
9:54 AM 36.0 °F 29.0 °F 34.0 °F 93% 30.38 in 9.0 mi ENE 9.2 mph - 0.01 in   Overcast
10:06 AM 37.4 °F 30.8 °F 35.6 °F 93% 30.35 in 9.0 mi East 9.2 mph - 0.01 in Rain Light Rain
10:54 AM 37.0 °F 29.8 °F 35.1 °F 93% 30.38 in 5.0 mi East 10.4 mph - 0.02 in   Overcast
11:54 AM 37.9 °F 32.1 °F 36.0 °F 93% 30.38 in 8.0 mi East 8.1 mph - 0.00 in Rain Light Rain
12:54 PM 39.0 °F 31.8 °F 36.0 °F 89% 30.37 in 10.0 mi ESE 11.5 mph - 0.01 in Rain Light Rain
1:13 PM 39.2 °F 32.0 °F 35.6 °F 87% 30.33 in 10.0 mi ESE 11.5 mph - 0.00 in   Overcast
1:45 PM 39.2 °F 32.0 °F 35.6 °F 87% 30.32 in 10.0 mi East 11.5 mph - 0.00 in   Overcast
1:54 PM 39.0 °F 31.8 °F 35.1 °F 86% 30.35 in 10.0 mi East 11.5 mph - 0.00 in   Overcast
2:01 PM 39.2 °F 32.0 °F 35.6 °F 87% 30.31 in 10.0 mi East 11.5 mph - N/A   Overcast
2:13 PM 39.2 °F 32.0 °F 35.6 °F 87% 30.31 in 10.0 mi ESE 11.5 mph - N/A   Overcast
2:54 PM 39.0 °F 32.8 °F 36.0 °F 89% 30.34 in 10.0 mi ESE 9.2 mph - N/A   Overcast
3:03 PM 39.2 °F 33.0 °F 35.6 °F 87% 30.30 in 10.0 mi ESE 9.2 mph - N/A   Overcast
3:54 PM 39.0 °F 34.0 °F 35.1 °F 86% 30.35 in 4.0 mi East 6.9 mph - 0.01 in Rain Light Rain
4:21 PM 37.4 °F 30.3 °F 35.6 °F 93% 30.31 in 4.0 mi ENE 10.4 mph - 0.00 in   Overcast
4:27 PM 37.4 °F 30.3 °F 35.6 °F 93% 30.31 in 2.0 mi NE 10.4 mph - 0.00 in Rain Light Rain
4:54 PM 37.0 °F 29.3 °F 36.0 °F 96% 30.35 in 3.0 mi ENE 11.5 mph - 0.00 in   Overcast
5:17 PM 37.4 °F 29.3 °F 35.6 °F 93% 30.30 in 2.5 mi ENE 12.7 mph - N/A   Overcast
5:26 PM 37.4 °F 29.8 °F 35.6 °F 93% 30.31 in 4.0 mi ENE 11.5 mph - N/A   Overcast
5:54 PM 37.0 °F 29.3 °F 35.1 °F 93% 30.35 in 4.0 mi ENE 11.5 mph - N/A   Overcast
6:54 PM 36.0 °F 29.0 °F 35.1 °F 97% 30.36 in 9.0 mi East 9.2 mph - N/A   Overcast
7:54 PM 36.0 °F 29.6 °F 34.0 °F 93% 30.38 in 10.0 mi East 8.1 mph - N/A   Overcast
8:54 PM 36.0 °F 29.6 °F 33.1 °F 89% 30.40 in 10.0 mi East 8.1 mph - N/A   Overcast
9:23 PM 35.6 °F 29.9 °F 33.8 °F 93% 30.36 in 10.0 mi East 6.9 mph - N/A   Overcast
9:54 PM 36.0 °F 30.3 °F 34.0 °F 93% 30.41 in 10.0 mi East 6.9 mph - N/A   Overcast
10:54 PM 36.0 °F 32.1 °F 33.1 °F 89% 30.40 in 10.0 mi East 4.6 mph - N/A   Overcast
11:54 PM 36.0 °F 33.3 °F 33.1 °F 89% 30.40 in 10.0 mi ESE 3.5 mph - N/A   Overcast